Time,TemperatureF,DewpointF,PressureIn,WindDirection,WindDirectionDegrees,WindSpeedMPH,WindSpeedGustMPH,Humidity,HourlyPrecipIn,Conditions,Clouds,dailyrainin,SoftwareType,DateUTC
2013-04-04 00:02:00,47.0,43.0,30.15,ENE,77,0.0,-999.0,85,-99.99,,,0.08,,2013-04-04 05:02:00,
2013-04-04 00:13:00,47.0,43.0,30.15,ENE,77,0.0,-999.0,85,-99.99,,,0.08,,2013-04-04 05:13:00,
2013-04-04 00:23:00,47.0,43.0,30.15,ENE,77,1.0,-999.0,86,-99.99,,,0.09,,2013-04-04 05:23:00,
2013-04-04 00:32:00,47.0,43.0,30.14,ENE,64,4.0,-999.0,86,-99.99,,,0.09,,2013-04-04 05:32:00,
2013-04-04 00:42:00,47.0,43.0,30.14,ENE,64,4.0,-999.0,86,-99.99,,,0.09,,2013-04-04 05:42:00,
2013-04-04 00:53:00,47.0,44.0,30.14,East,81,2.0,-999.0,88,-99.99,,,0.11,,2013-04-04 05:53:00,
2013-04-04 01:02:00,47.0,45.0,30.14,East,81,2.0,-999.0,91,-99.99,,,0.11,,2013-04-04 06:02:00,
2013-04-04 01:12:00,47.0,45.0,30.14,East,81,2.0,-999.0,91,-99.99,,,0.11,,2013-04-04 06:12:00,
2013-04-04 01:22:00,46.0,44.0,30.13,East,80,2.0,-999.0,92,-99.99,,,0.11,,2013-04-04 06:22:00,
2013-04-04 01:32:00,46.0,44.0,30.12,East,81,2.0,-999.0,91,-99.99,,,0.11,,2013-04-04 06:32:00,
2013-04-04 01:42:00,46.0,44.0,30.12,East,81,2.0,-999.0,91,-99.99,,,0.11,,2013-04-04 06:42:00,
2013-04-04 01:52:00,46.0,44.0,30.11,NE,37,0.0,-999.0,92,-99.99,,,0.12,,2013-04-04 06:52:00,
2013-04-04 02:02:00,47.0,45.0,30.11,East,86,2.0,-999.0,91,-99.99,,,0.12,,2013-04-04 07:02:00,
2013-04-04 02:12:00,47.0,45.0,30.11,East,86,2.0,-999.0,91,-99.99,,,0.12,,2013-04-04 07:12:00,
2013-04-04 02:22:00,47.0,45.0,30.09,ENE,73,4.0,-999.0,92,-99.99,,,0.12,,2013-04-04 07:22:00,
2013-04-04 02:32:00,47.0,45.0,30.09,ENE,76,5.0,-999.0,91,-99.99,,,0.13,,2013-04-04 07:32:00,
2013-04-04 02:43:00,47.0,45.0,30.09,ENE,76,5.0,-999.0,91,-99.99,,,0.13,,2013-04-04 07:43:00,
2013-04-04 02:52:00,47.0,45.0,30.08,East,91,7.0,-999.0,92,-99.99,,,0.13,,2013-04-04 07:52:00,
2013-04-04 03:02:00,47.0,45.0,30.07,East,98,8.0,-999.0,92,-99.99,,,0.14,,2013-04-04 08:02:00,
2013-04-04 03:12:00,47.0,45.0,30.07,East,98,8.0,-999.0,92,-99.99,,,0.14,,2013-04-04 08:12:00,
2013-04-04 03:22:00,47.0,45.0,30.06,ESE,103,7.0,-999.0,92,-99.99,,,0.14,,2013-04-04 08:22:00,
2013-04-04 03:32:00,47.0,45.0,30.06,East,85,8.0,-999.0,92,-99.99,,,0.14,,2013-04-04 08:32:00,
2013-04-04 03:43:00,47.0,45.0,30.06,East,85,8.0,-999.0,92,-99.99,,,0.14,,2013-04-04 08:43:00,
2013-04-04 03:52:00,47.0,45.0,30.05,East,84,7.0,-999.0,93,-99.99,,,0.14,,2013-04-04 08:52:00,
2013-04-04 04:02:00,48.0,46.0,30.04,ESE,108,9.0,-999.0,92,-99.99,,,0.14,,2013-04-04 09:02:00,
2013-04-04 04:12:00,48.0,46.0,30.04,ESE,108,9.0,-999.0,92,-99.99,,,0.14,,2013-04-04 09:12:00,
2013-04-04 04:22:00,48.0,46.0,30.04,East,96,9.0,-999.0,92,-99.99,,,0.15,,2013-04-04 09:22:00,
2013-04-04 04:33:00,47.0,45.0,30.03,East,88,9.0,-999.0,92,-99.99,,,0.17,,2013-04-04 09:33:00,
2013-04-04 04:43:00,47.0,45.0,30.03,East,88,9.0,-999.0,92,-99.99,,,0.17,,2013-04-04 09:43:00,
2013-04-04 04:54:00,47.0,45.0,30.03,East,83,11.0,-999.0,91,-99.99,,,0.17,,2013-04-04 09:54:00,
2013-04-04 05:04:00,47.0,45.0,30.03,ESE,107,10.0,-999.0,91,-99.99,,,0.18,,2013-04-04 10:04:00,
2013-04-04 05:12:00,47.0,45.0,30.03,ESE,107,10.0,-999.0,91,-99.99,,,0.18,,2013-04-04 10:12:00,
2013-04-04 05:23:00,47.0,45.0,30.04,SE,126,9.0,-999.0,92,-99.99,,,0.22,,2013-04-04 10:23:00,
2013-04-04 05:33:00,47.0,45.0,30.04,East,95,9.0,-999.0,93,-99.99,,,0.24,,2013-04-04 10:33:00,
2013-04-04 05:42:00,47.0,45.0,30.04,East,95,9.0,-999.0,93,-99.99,,,0.24,,2013-04-04 10:42:00,
2013-04-04 05:53:00,46.0,44.0,30.04,ESE,111,10.0,-999.0,93,-99.99,,,0.25,,2013-04-04 10:53:00,
2013-04-04 06:02:00,47.0,45.0,30.04,ESE,120,10.0,-999.0,92,-99.99,,,0.26,,2013-04-04 11:02:00,
2013-04-04 06:12:00,47.0,45.0,30.04,ESE,120,10.0,-999.0,92,-99.99,,,0.26,,2013-04-04 11:12:00,
2013-04-04 06:22:00,47.0,45.0,30.05,ESE,115,9.0,-999.0,92,-99.99,,,0.26,,2013-04-04 11:22:00,
2013-04-04 06:33:00,46.0,44.0,30.05,ESE,103,9.0,-999.0,92,-99.99,,,0.27,,2013-04-04 11:33:00,
2013-04-04 06:42:00,46.0,44.0,30.05,ESE,103,9.0,-999.0,92,-99.99,,,0.27,,2013-04-04 11:42:00,
2013-04-04 06:54:00,46.0,44.0,30.04,ESE,112,10.0,-999.0,92,-99.99,,,0.27,,2013-04-04 11:54:00,
2013-04-04 07:02:00,46.0,44.0,30.04,ESE,104,12.0,-999.0,92,-99.99,,,0.27,,2013-04-04 12:02:00,
2013-04-04 07:12:00,46.0,44.0,30.04,ESE,104,12.0,-999.0,92,-99.99,,,0.27,,2013-04-04 12:12:00,
2013-04-04 07:22:00,46.0,44.0,30.05,SE,125,8.0,-999.0,92,-99.99,,,0.29,,2013-04-04 12:22:00,
2013-04-04 07:32:00,46.0,44.0,30.05,ESE,103,5.0,-999.0,92,-99.99,,,0.30,,2013-04-04 12:32:00,
2013-04-04 07:52:00,46.0,44.0,30.05,ESE,109,5.0,-999.0,92,-99.99,,,0.33,,2013-04-04 12:52:00,
2013-04-04 08:02:00,46.0,44.0,30.06,ESE,120,5.0,-999.0,93,-99.99,,,0.34,,2013-04-04 13:02:00,
2013-04-04 08:12:00,46.0,44.0,30.06,ESE,120,5.0,-999.0,93,-99.99,,,0.34,,2013-04-04 13:12:00,
2013-04-04 08:22:00,46.0,44.0,30.06,East,90,5.0,-999.0,93,-99.99,,,0.35,,2013-04-04 13:22:00,
2013-04-04 08:32:00,46.0,44.0,30.06,ESE,104,6.0,-999.0,93,-99.99,,,0.35,,2013-04-04 13:32:00,
2013-04-04 08:42:00,46.0,44.0,30.06,ESE,104,6.0,-999.0,93,-99.99,,,0.35,,2013-04-04 13:42:00,
2013-04-04 08:52:00,46.0,44.0,30.06,ESE,106,9.0,-999.0,92,-99.99,,,0.35,,2013-04-04 13:52:00,
2013-04-04 09:03:00,46.0,44.0,30.06,ESE,102,9.0,-999.0,92,-99.99,,,0.35,,2013-04-04 14:03:00,
2013-04-04 09:12:00,46.0,44.0,30.06,ESE,102,9.0,-999.0,92,-99.99,,,0.35,,2013-04-04 14:12:00,
2013-04-04 09:22:00,46.0,44.0,30.06,SE,132,7.0,-999.0,92,-99.99,,,0.35,,2013-04-04 14:22:00,
2013-04-04 09:32:00,46.0,44.0,30.05,ESE,106,9.0,-999.0,93,-99.99,,,0.36,,2013-04-04 14:32:00,
2013-04-04 09:42:00,46.0,44.0,30.05,ESE,106,9.0,-999.0,93,-99.99,,,0.36,,2013-04-04 14:42:00,
2013-04-04 09:53:00,46.0,44.0,30.05,East,97,8.0,-999.0,92,-99.99,,,0.36,,2013-04-04 14:53:00,
2013-04-04 10:02:00,46.0,44.0,30.06,ESE,120,9.0,-999.0,91,-99.99,,,0.36,,2013-04-04 15:02:00,
2013-04-04 10:12:00,46.0,44.0,30.06,ESE,120,9.0,-999.0,91,-99.99,,,0.36,,2013-04-04 15:12:00,
2013-04-04 10:23:00,47.0,44.0,30.06,ESE,106,12.0,-999.0,90,-99.99,,,0.36,,2013-04-04 15:23:00,
2013-04-04 10:33:00,47.0,44.0,30.06,ESE,110,9.0,-999.0,90,-99.99,,,0.36,,2013-04-04 15:33:00,
2013-04-04 10:43:00,47.0,44.0,30.06,ESE,110,9.0,-999.0,90,-99.99,,,0.36,,2013-04-04 15:43:00,
2013-04-04 10:53:00,47.0,45.0,30.06,ESE,120,6.0,-999.0,91,-99.99,,,0.36,,2013-04-04 15:53:00,
2013-04-04 11:03:00,47.0,44.0,30.07,SE,131,7.0,-999.0,90,-99.99,,,0.36,,2013-04-04 16:03:00,
2013-04-04 11:12:00,47.0,44.0,30.07,SE,131,7.0,-999.0,90,-99.99,,,0.36,,2013-04-04 16:12:00,
2013-04-04 11:23:00,47.0,45.0,30.07,ESE,114,10.0,-999.0,91,-99.99,,,0.36,,2013-04-04 16:23:00,
2013-04-04 11:32:00,47.0,45.0,30.07,SE,131,8.0,-999.0,92,-99.99,,,0.37,,2013-04-04 16:32:00,
2013-04-04 11:42:00,47.0,45.0,30.07,SE,131,8.0,-999.0,92,-99.99,,,0.37,,2013-04-04 16:42:00,
2013-04-04 11:53:00,46.0,44.0,30.07,SE,129,8.0,-999.0,93,-99.99,,,0.37,,2013-04-04 16:53:00,
2013-04-04 12:03:00,46.0,44.0,30.06,East,100,8.0,-999.0,93,-99.99,,,0.38,,2013-04-04 17:03:00,
2013-04-04 12:13:00,46.0,44.0,30.06,East,100,8.0,-999.0,93,-99.99,,,0.38,,2013-04-04 17:13:00,
2013-04-04 12:22:00,47.0,45.0,30.06,East,101,7.0,-999.0,93,-99.99,,,0.38,,2013-04-04 17:22:00,
2013-04-04 12:33:00,47.0,45.0,30.05,ESE,112,6.0,-999.0,93,-99.99,,,0.38,,2013-04-04 17:33:00,
2013-04-04 12:42:00,47.0,45.0,30.05,ESE,112,6.0,-999.0,93,-99.99,,,0.38,,2013-04-04 17:42:00,
2013-04-04 12:52:00,47.0,45.0,30.05,ESE,108,6.0,-999.0,93,-99.99,,,0.38,,2013-04-04 17:52:00,
2013-04-04 13:02:00,47.0,45.0,30.04,SE,139,6.0,-999.0,93,-99.99,,,0.38,,2013-04-04 18:02:00,
2013-04-04 13:12:00,47.0,45.0,30.04,SE,139,6.0,-999.0,93,-99.99,,,0.38,,2013-04-04 18:12:00,
2013-04-04 13:22:00,47.0,45.0,30.04,East,92,6.0,-999.0,92,-99.99,,,0.38,,2013-04-04 18:22:00,
2013-04-04 13:32:00,47.0,45.0,30.04,ESE,112,7.0,-999.0,92,-99.99,,,0.38,,2013-04-04 18:32:00,
2013-04-04 13:43:00,47.0,45.0,30.04,ESE,112,7.0,-999.0,92,-99.99,,,0.38,,2013-04-04 18:43:00,
2013-04-04 13:52:00,47.0,45.0,30.03,SE,130,7.0,-999.0,91,-99.99,,,0.38,,2013-04-04 18:52:00,
2013-04-04 14:02:00,47.0,45.0,30.03,SE,125,7.0,-999.0,91,-99.99,,,0.38,,2013-04-04 19:02:00,
2013-04-04 14:12:00,47.0,45.0,30.03,SE,125,7.0,-999.0,91,-99.99,,,0.38,,2013-04-04 19:12:00,
2013-04-04 14:22:00,46.0,44.0,30.02,East,95,9.0,-999.0,91,-99.99,,,0.38,,2013-04-04 19:22:00,
2013-04-04 14:32:00,46.0,44.0,30.02,East,91,7.0,-999.0,92,-99.99,,,0.38,,2013-04-04 19:32:00,
2013-04-04 14:42:00,46.0,44.0,30.02,East,91,7.0,-999.0,92,-99.99,,,0.38,,2013-04-04 19:42:00,
2013-04-04 14:52:00,46.0,44.0,30.02,ESE,116,7.0,-999.0,93,-99.99,,,0.38,,2013-04-04 19:52:00,
2013-04-04 15:03:00,46.0,44.0,30.02,East,91,7.0,-999.0,92,-99.99,,,0.38,,2013-04-04 20:03:00,
2013-04-04 15:12:00,46.0,44.0,30.02,East,91,7.0,-999.0,92,-99.99,,,0.38,,2013-04-04 20:12:00,
2013-04-04 15:22:00,46.0,44.0,30.01,East,90,9.0,-999.0,92,-99.99,,,0.38,,2013-04-04 20:22:00,
2013-04-04 15:32:00,46.0,44.0,30.01,East,87,6.0,-999.0,92,-99.99,,,0.38,,2013-04-04 20:32:00,
2013-04-04 15:42:00,46.0,44.0,30.01,East,87,6.0,-999.0,92,-99.99,,,0.38,,2013-04-04 20:42:00,
2013-04-04 15:53:00,46.0,44.0,30.00,East,89,8.0,-999.0,92,-99.99,,,0.38,,2013-04-04 20:53:00,
2013-04-04 16:02:00,46.0,44.0,30.00,ESE,102,9.0,-999.0,92,-99.99,,,0.38,,2013-04-04 21:02:00,
2013-04-04 16:12:00,46.0,44.0,30.00,ESE,102,9.0,-999.0,92,-99.99,,,0.38,,2013-04-04 21:12:00,
2013-04-04 16:22:00,46.0,44.0,30.00,ESE,116,8.0,-999.0,91,-99.99,,,0.38,,2013-04-04 21:22:00,
2013-04-04 16:32:00,45.0,43.0,30.01,ESE,114,7.0,-999.0,91,-99.99,,,0.38,,2013-04-04 21:32:00,
2013-04-04 16:43:00,45.0,43.0,30.01,ESE,114,7.0,-999.0,91,-99.99,,,0.38,,2013-04-04 21:43:00,
2013-04-04 16:52:00,46.0,43.0,30.00,ESE,110,7.0,-999.0,90,-99.99,,,0.38,,2013-04-04 21:52:00,
2013-04-04 17:03:00,46.0,43.0,30.01,ESE,120,6.0,-999.0,90,-99.99,,,0.38,,2013-04-04 22:03:00,
2013-04-04 17:12:00,46.0,43.0,30.01,ESE,120,6.0,-999.0,90,-99.99,,,0.38,,2013-04-04 22:12:00,
2013-04-04 17:23:00,46.0,43.0,30.00,East,95,8.0,-999.0,90,-99.99,,,0.38,,2013-04-04 22:23:00,
2013-04-04 17:33:00,46.0,43.0,30.00,ESE,122,7.0,-999.0,89,-99.99,,,0.38,,2013-04-04 22:33:00,
2013-04-04 17:42:00,46.0,43.0,30.00,ESE,122,7.0,-999.0,89,-99.99,,,0.38,,2013-04-04 22:42:00,
2013-04-04 17:53:00,46.0,43.0,30.00,ESE,114,6.0,-999.0,89,-99.99,,,0.38,,2013-04-04 22:53:00,
2013-04-04 18:02:00,46.0,43.0,30.00,ESE,118,5.0,-999.0,89,-99.99,,,0.38,,2013-04-04 23:02:00,
2013-04-04 18:12:00,46.0,43.0,30.00,ESE,118,5.0,-999.0,89,-99.99,,,0.38,,2013-04-04 23:12:00,
2013-04-04 18:22:00,45.0,42.0,30.00,ESE,117,4.0,-999.0,90,-99.99,,,0.38,,2013-04-04 23:22:00,
2013-04-04 18:32:00,45.0,43.0,29.99,ESE,114,5.0,-999.0,91,-99.99,,,0.38,,2013-04-04 23:32:00,
2013-04-04 18:42:00,45.0,43.0,29.99,ESE,114,5.0,-999.0,91,-99.99,,,0.38,,2013-04-04 23:42:00,
2013-04-04 18:52:00,45.0,43.0,29.99,ESE,109,3.0,-999.0,91,-99.99,,,0.38,,2013-04-04 23:52:00,
2013-04-04 19:02:00,45.0,43.0,29.99,SE,134,3.0,-999.0,92,-99.99,,,0.38,,2013-04-05 00:02:00,
2013-04-04 19:12:00,45.0,43.0,29.99,SE,134,3.0,-999.0,92,-99.99,,,0.38,,2013-04-05 00:12:00,
2013-04-04 19:22:00,45.0,43.0,29.99,SE,135,3.0,-999.0,92,-99.99,,,0.38,,2013-04-05 00:22:00,
2013-04-04 19:32:00,45.0,43.0,29.99,SE,127,3.0,-999.0,91,-99.99,,,0.00,,2013-04-05 00:32:00,
2013-04-04 19:42:00,45.0,43.0,29.99,SE,127,3.0,-999.0,91,-99.99,,,0.00,,2013-04-05 00:42:00,
2013-04-04 19:52:00,45.0,43.0,29.99,SE,127,0.0,-999.0,91,-99.99,,,0.00,,2013-04-05 00:52:00,
2013-04-04 20:02:00,45.0,43.0,29.99,SE,127,1.0,-999.0,91,-99.99,,,0.00,,2013-04-05 01:02:00,
2013-04-04 20:12:00,45.0,43.0,29.99,SE,127,1.0,-999.0,91,-99.99,,,0.00,,2013-04-05 01:12:00,
2013-04-04 20:22:00,45.0,43.0,29.99,ESE,114,2.0,-999.0,91,-99.99,,,0.00,,2013-04-05 01:22:00,
2013-04-04 20:32:00,45.0,43.0,30.00,ENE,61,2.0,-999.0,91,-99.99,,,0.00,,2013-04-05 01:32:00,
2013-04-04 20:42:00,45.0,43.0,30.00,ENE,61,2.0,-999.0,91,-99.99,,,0.00,,2013-04-05 01:42:00,
2013-04-04 20:53:00,45.0,43.0,30.00,ESE,121,2.0,-999.0,91,-99.99,,,0.00,,2013-04-05 01:53:00,
2013-04-04 21:03:00,45.0,43.0,30.01,ESE,109,1.0,-999.0,91,-99.99,,,0.00,,2013-04-05 02:03:00,
2013-04-04 21:12:00,45.0,43.0,30.01,ESE,109,1.0,-999.0,91,-99.99,,,0.00,,2013-04-05 02:12:00,
2013-04-04 21:22:00,46.0,43.0,30.01,NE,50,2.0,-999.0,90,-99.99,,,0.00,,2013-04-05 02:22:00,
2013-04-04 21:32:00,46.0,43.0,30.02,NE,50,2.0,-999.0,90,-99.99,,,0.00,,2013-04-05 02:32:00,
2013-04-04 21:42:00,46.0,43.0,30.02,NE,50,2.0,-999.0,90,-99.99,,,0.00,,2013-04-05 02:42:00,
2013-04-04 21:52:00,46.0,44.0,30.02,NE,50,1.0,-999.0,91,-99.99,,,0.00,,2013-04-05 02:52:00,
2013-04-04 22:02:00,46.0,44.0,30.02,NE,48,2.0,-999.0,91,-99.99,,,0.00,,2013-04-05 03:02:00,
2013-04-04 22:12:00,46.0,44.0,30.02,NE,48,2.0,-999.0,91,-99.99,,,0.00,,2013-04-05 03:12:00,
2013-04-04 22:22:00,45.0,43.0,30.02,NE,48,1.0,-999.0,92,-99.99,,,0.00,,2013-04-05 03:22:00,
2013-04-04 22:32:00,45.0,43.0,30.02,NE,53,1.0,-999.0,92,-99.99,,,0.00,,2013-04-05 03:32:00,
2013-04-04 22:43:00,45.0,43.0,30.02,NE,53,1.0,-999.0,92,-99.99,,,0.00,,2013-04-05 03:43:00,
2013-04-04 22:54:00,45.0,43.0,30.02,NE,53,0.0,-999.0,93,-99.99,,,0.00,,2013-04-05 03:54:00,
2013-04-04 23:02:00,45.0,43.0,30.02,NE,53,1.0,-999.0,93,-99.99,,,0.00,,2013-04-05 04:02:00,
2013-04-04 23:12:00,45.0,43.0,30.02,NE,53,1.0,-999.0,93,-99.99,,,0.00,,2013-04-05 04:12:00,
2013-04-04 23:22:00,45.0,43.0,30.02,NE,53,1.0,-999.0,94,-99.99,,,0.00,,2013-04-05 04:22:00,
2013-04-04 23:32:00,45.0,43.0,30.02,NE,53,0.0,-999.0,94,-99.99,,,0.00,,2013-04-05 04:32:00,
2013-04-04 23:42:00,45.0,43.0,30.02,NE,53,0.0,-999.0,94,-99.99,,,0.00,,2013-04-05 04:42:00,
2013-04-04 23:52:00,45.0,43.0,30.02,NE,53,0.0,-999.0,94,-99.99,,,0.00,,2013-04-05 04:52:00,